Location: Ceske Budejovice
(48.9830°N, 14.4670°E)
Time: 09:51:19
(UTC+02:00)

ISS - Pass Details

Date: 29 April 2024
Orbit: 409 x 414 km, 51.6° (Epoch: 21 May)

Event Time Altitude Azimuth Distance (km) Brightness Sun altitude
Exits shadow 04:37:29 12° 264° (W) 1,339 -1.7 -10.3°
Maximum altitude 04:40:26 66° 346° (NNW) 453 -3.5 -9.9°
Drops below altitude 10° 04:43:44 10° 70° (ENE) 1,478 0.4 -9.5°
Sets 04:45:50 0° 73° (ENE) 2,340 1.7 -9.2°
